STARLINK-34410

Last updated on Thu Jul 03 2025 00:02:07 GMT+0000 (Coordinated Universal Time)

1 64440U 25130C 25183.58335648 -.01108169 00000+0 -77940-2 0 9996 2 64440 53.1555 179.8064 0001482 60.0746 44.7403 15.76028756 3526
UTC large
Height (km)
Speed (km/s)
/
Latitude / Longitude
Inclination (degrees)
Orbital Period (minutes)
Azimuth
Elevation
Range (km)
Doppler Factor

Next 0 passes for location: London (51.5072 / 0.1276)

Sorry there are no passes over London.